Year,Month,Day,Hour,Minute,Value (Times are PST for temperature in C)
2015,07,06,00,00,16.40
2015,07,06,00,01,16.40
2015,07,06,00,02,16.30
2015,07,06,00,03,16.30
2015,07,06,00,04,16.30
2015,07,06,00,05,16.20
2015,07,06,00,06,16.20
2015,07,06,00,07,16.20
2015,07,06,00,08,16.20
2015,07,06,00,09,16.20
2015,07,06,00,10,16.10
2015,07,06,00,11,16.10
2015,07,06,00,12,16.10
2015,07,06,00,13,16.10
2015,07,06,00,14,16.00
2015,07,06,00,15,16.00
2015,07,06,00,16,16.00
2015,07,06,00,17,16.00
2015,07,06,00,18,16.00
2015,07,06,00,19,15.90
2015,07,06,00,20,15.90
2015,07,06,00,21,15.90
2015,07,06,00,22,15.90
2015,07,06,00,23,15.90
2015,07,06,00,24,15.90
2015,07,06,00,25,15.90
2015,07,06,00,26,15.90
2015,07,06,00,27,15.90
2015,07,06,00,28,15.90
2015,07,06,00,29,15.90
2015,07,06,00,30,15.90
2015,07,06,00,31,15.90
2015,07,06,00,32,15.90
2015,07,06,00,33,15.90
2015,07,06,00,34,15.90
2015,07,06,00,35,15.80
2015,07,06,00,36,15.80
2015,07,06,00,37,15.90
2015,07,06,00,38,15.90
2015,07,06,00,39,15.90
2015,07,06,00,40,15.90
2015,07,06,00,41,15.90
2015,07,06,00,42,15.90
2015,07,06,00,43,15.90
2015,07,06,00,44,15.90
2015,07,06,00,45,15.90
2015,07,06,00,46,15.90
2015,07,06,00,47,15.90
2015,07,06,00,48,15.90
2015,07,06,00,49,15.90
2015,07,06,00,50,15.90
2015,07,06,00,51,15.90
2015,07,06,00,52,15.90
2015,07,06,00,53,15.90
2015,07,06,00,54,15.80
2015,07,06,00,55,15.80
2015,07,06,00,56,15.80
2015,07,06,00,57,15.80
2015,07,06,00,58,15.80
2015,07,06,00,59,15.80
2015,07,06,01,00,15.80
2015,07,06,01,01,15.80
2015,07,06,01,02,15.80
2015,07,06,01,03,15.80
2015,07,06,01,04,15.80
2015,07,06,01,05,15.80
2015,07,06,01,06,15.80
2015,07,06,01,07,15.80
2015,07,06,01,08,15.80
2015,07,06,01,09,15.80
2015,07,06,01,10,15.70
2015,07,06,01,11,15.70
2015,07,06,01,12,15.70
2015,07,06,01,13,15.60
2015,07,06,01,14,15.60
2015,07,06,01,15,15.60
2015,07,06,01,16,15.50
2015,07,06,01,17,15.50
2015,07,06,01,18,15.60
2015,07,06,01,19,15.70
2015,07,06,01,20,15.80
2015,07,06,01,21,16.00
2015,07,06,01,22,16.20
2015,07,06,01,23,16.30
2015,07,06,01,24,16.40
2015,07,06,01,25,16.40
2015,07,06,01,26,16.40
2015,07,06,01,27,16.40
2015,07,06,01,28,16.40
2015,07,06,01,29,16.40
2015,07,06,01,30,16.40
2015,07,06,01,31,16.40
2015,07,06,01,32,16.40
2015,07,06,01,33,16.40
2015,07,06,01,34,16.40
2015,07,06,01,35,16.30
2015,07,06,01,36,16.30
2015,07,06,01,37,16.30
2015,07,06,01,38,16.30
2015,07,06,01,39,16.20
2015,07,06,01,40,16.20
2015,07,06,01,41,16.20
2015,07,06,01,42,16.20
2015,07,06,01,43,16.20
2015,07,06,01,44,16.10
2015,07,06,01,45,16.10
2015,07,06,01,46,16.10
2015,07,06,01,47,16.00
2015,07,06,01,48,16.00
2015,07,06,01,49,16.00
2015,07,06,01,50,16.00
2015,07,06,01,51,16.10
2015,07,06,01,52,16.10
2015,07,06,01,53,16.10
2015,07,06,01,54,16.10
2015,07,06,01,55,16.10
2015,07,06,01,56,16.10
2015,07,06,01,57,16.10
2015,07,06,01,58,16.10
2015,07,06,01,59,16.10
2015,07,06,02,00,16.10
2015,07,06,02,01,16.10
2015,07,06,02,02,16.10
2015,07,06,02,03,16.20
2015,07,06,02,04,16.20
2015,07,06,02,05,16.30
2015,07,06,02,06,16.30
2015,07,06,02,07,16.30
2015,07,06,02,08,16.40
2015,07,06,02,09,16.40
2015,07,06,02,10,16.40
2015,07,06,02,11,16.50
2015,07,06,02,12,16.50
2015,07,06,02,13,16.50
2015,07,06,02,14,16.50
2015,07,06,02,15,16.60
2015,07,06,02,16,16.60
2015,07,06,02,17,16.50
2015,07,06,02,18,16.50
2015,07,06,02,19,16.50
2015,07,06,02,20,16.50
2015,07,06,02,21,16.40
2015,07,06,02,22,16.40
2015,07,06,02,23,16.40
2015,07,06,02,24,16.40
2015,07,06,02,25,16.30
2015,07,06,02,26,16.30
2015,07,06,02,27,16.30
2015,07,06,02,28,16.30
2015,07,06,02,29,16.20
2015,07,06,02,30,16.20
2015,07,06,02,31,16.20
2015,07,06,02,32,16.20
2015,07,06,02,33,16.20
2015,07,06,02,34,16.10
2015,07,06,02,35,16.10
2015,07,06,02,36,16.10
2015,07,06,02,37,16.10
2015,07,06,02,38,16.10
2015,07,06,02,39,16.10
2015,07,06,02,40,16.10
2015,07,06,02,41,16.10
2015,07,06,02,42,16.10
2015,07,06,02,43,16.10
2015,07,06,02,44,16.10
2015,07,06,02,45,16.10
2015,07,06,02,46,16.10
2015,07,06,02,47,16.20
2015,07,06,02,48,16.20
2015,07,06,02,49,16.20
2015,07,06,02,50,16.20
2015,07,06,02,51,16.30
2015,07,06,02,52,16.30
2015,07,06,02,53,16.30
2015,07,06,02,54,16.30
2015,07,06,02,55,16.30
2015,07,06,02,56,16.30
2015,07,06,02,57,16.30
2015,07,06,02,58,16.40
2015,07,06,02,59,16.40
2015,07,06,03,00,16.40
2015,07,06,03,01,16.40
2015,07,06,03,02,16.30
2015,07,06,03,03,16.40
2015,07,06,03,04,16.30
2015,07,06,03,05,16.30
2015,07,06,03,06,16.30
2015,07,06,03,07,16.20
2015,07,06,03,08,16.20
2015,07,06,03,09,16.20
2015,07,06,03,10,16.10
2015,07,06,03,11,16.10
2015,07,06,03,12,16.10
2015,07,06,03,13,16.10
2015,07,06,03,14,16.10
2015,07,06,03,15,16.10
2015,07,06,03,16,16.10
2015,07,06,03,17,16.00
2015,07,06,03,18,16.00
2015,07,06,03,19,16.00
2015,07,06,03,20,16.00
2015,07,06,03,21,15.90
2015,07,06,03,22,15.90
2015,07,06,03,23,15.90
2015,07,06,03,24,15.90
2015,07,06,03,25,15.90
2015,07,06,03,26,15.80
2015,07,06,03,27,15.80
2015,07,06,03,28,15.80
2015,07,06,03,29,15.80
2015,07,06,03,30,15.80
2015,07,06,03,31,15.80
2015,07,06,03,32,15.80
2015,07,06,03,33,15.80
2015,07,06,03,34,15.80
2015,07,06,03,35,15.80
2015,07,06,03,36,15.80
2015,07,06,03,37,15.80
2015,07,06,03,38,15.80
2015,07,06,03,39,15.80
2015,07,06,03,40,15.80
2015,07,06,03,41,15.80
2015,07,06,03,42,15.80
2015,07,06,03,43,15.80
2015,07,06,03,44,15.80
2015,07,06,03,45,15.80
2015,07,06,03,46,15.80
2015,07,06,03,47,15.80
2015,07,06,03,48,15.80
2015,07,06,03,49,15.80
2015,07,06,03,50,15.80
2015,07,06,03,51,15.80
2015,07,06,03,52,15.80
2015,07,06,03,53,15.80
2015,07,06,03,54,15.80
2015,07,06,03,55,15.80
2015,07,06,03,56,15.80
2015,07,06,03,57,15.80
2015,07,06,03,58,15.80
2015,07,06,03,59,15.80
2015,07,06,04,00,15.80
2015,07,06,04,01,15.80
2015,07,06,04,02,15.80
2015,07,06,04,03,15.80
2015,07,06,04,04,15.80
2015,07,06,04,05,15.80
2015,07,06,04,06,15.80
2015,07,06,04,07,15.80
2015,07,06,04,08,15.80
2015,07,06,04,09,15.80
2015,07,06,04,10,15.80
2015,07,06,04,11,15.80
2015,07,06,04,12,15.80
2015,07,06,04,13,15.80
2015,07,06,04,14,15.80
2015,07,06,04,15,15.80
2015,07,06,04,16,15.80
2015,07,06,04,17,15.80
2015,07,06,04,18,15.80
2015,07,06,04,19,15.80
2015,07,06,04,20,15.80
2015,07,06,04,21,15.70
2015,07,06,04,22,15.70
2015,07,06,04,23,15.70
2015,07,06,04,24,15.70
2015,07,06,04,25,15.70
2015,07,06,04,26,15.70
2015,07,06,04,27,15.70
2015,07,06,04,28,15.70
2015,07,06,04,29,15.60
2015,07,06,04,30,15.60
2015,07,06,04,31,15.60
2015,07,06,04,32,15.60
2015,07,06,04,33,15.50
2015,07,06,04,34,15.50
2015,07,06,04,35,15.50
2015,07,06,04,36,15.50
2015,07,06,04,37,15.50
2015,07,06,04,38,15.40
2015,07,06,04,39,15.40
2015,07,06,04,40,15.40
2015,07,06,04,41,15.40
2015,07,06,04,42,15.40
2015,07,06,04,43,15.40
2015,07,06,04,44,15.40
2015,07,06,04,45,15.40
2015,07,06,04,46,15.30
2015,07,06,04,47,15.30
2015,07,06,04,48,15.30
2015,07,06,04,49,15.30
2015,07,06,04,50,15.30
2015,07,06,04,51,15.30
2015,07,06,04,52,15.20
2015,07,06,04,53,15.20
2015,07,06,04,54,15.20
2015,07,06,04,55,15.20
2015,07,06,04,56,15.20
2015,07,06,04,57,15.20
2015,07,06,04,58,15.20
2015,07,06,04,59,15.20
2015,07,06,05,00,15.20
2015,07,06,05,01,15.20
2015,07,06,05,02,15.20
2015,07,06,05,03,15.20
2015,07,06,05,04,15.20
2015,07,06,05,05,15.20
2015,07,06,05,06,15.20
2015,07,06,05,07,15.20
2015,07,06,05,08,15.20
2015,07,06,05,09,15.20
2015,07,06,05,10,15.20
2015,07,06,05,11,15.10
2015,07,06,05,12,15.10
2015,07,06,05,13,15.10
2015,07,06,05,14,15.10
2015,07,06,05,15,15.10
2015,07,06,05,16,15.10
2015,07,06,05,17,15.00
2015,07,06,05,18,15.00
2015,07,06,05,19,15.00
2015,07,06,05,20,15.00
2015,07,06,05,21,15.00
2015,07,06,05,22,15.00
2015,07,06,05,23,15.00
2015,07,06,05,24,15.00
2015,07,06,05,25,15.00
2015,07,06,05,26,15.00
2015,07,06,05,27,15.00
2015,07,06,05,28,15.00
2015,07,06,05,29,15.00
2015,07,06,05,30,15.00
2015,07,06,05,31,15.00
2015,07,06,05,32,15.00
2015,07,06,05,33,15.00
2015,07,06,05,34,15.00
2015,07,06,05,35,15.00
2015,07,06,05,36,15.00
2015,07,06,05,37,15.00
2015,07,06,05,38,15.00
2015,07,06,05,39,15.00
2015,07,06,05,40,15.00
2015,07,06,05,41,15.00
2015,07,06,05,42,15.00
2015,07,06,05,43,15.00
2015,07,06,05,44,15.00
2015,07,06,05,45,15.00
2015,07,06,05,46,15.00
2015,07,06,05,47,15.00
2015,07,06,05,48,15.00
2015,07,06,05,49,15.00
2015,07,06,05,50,15.00
2015,07,06,05,51,15.00
2015,07,06,05,52,15.00
2015,07,06,05,53,15.00
2015,07,06,05,54,15.00
2015,07,06,05,55,15.00
2015,07,06,05,56,15.00
2015,07,06,05,57,15.00
2015,07,06,05,58,15.00
2015,07,06,05,59,15.00
2015,07,06,06,00,14.90
2015,07,06,06,01,14.90
2015,07,06,06,02,14.90
2015,07,06,06,03,14.90
2015,07,06,06,04,14.90
2015,07,06,06,05,14.90
2015,07,06,06,06,14.90
2015,07,06,06,07,14.90
2015,07,06,06,08,14.80
2015,07,06,06,09,14.80
2015,07,06,06,10,14.80
2015,07,06,06,11,14.80
2015,07,06,06,12,14.80
2015,07,06,06,13,14.80
2015,07,06,06,14,14.80
2015,07,06,06,15,14.80
2015,07,06,06,16,14.80
2015,07,06,06,17,14.80
2015,07,06,06,18,14.80
2015,07,06,06,19,14.80
2015,07,06,06,20,14.80
2015,07,06,06,21,14.80
2015,07,06,06,22,14.80
2015,07,06,06,23,14.80
2015,07,06,06,24,14.80
2015,07,06,06,25,14.80
2015,07,06,06,26,14.80
2015,07,06,06,27,14.80
2015,07,06,06,28,14.80
2015,07,06,06,29,14.80
2015,07,06,06,30,14.80
2015,07,06,06,31,14.80
2015,07,06,06,32,14.80
2015,07,06,06,33,14.80
2015,07,06,06,34,14.80
2015,07,06,06,35,14.80
2015,07,06,06,36,14.70
2015,07,06,06,37,14.70
2015,07,06,06,38,14.70
2015,07,06,06,39,14.70
2015,07,06,06,40,14.70
2015,07,06,06,41,14.70
2015,07,06,06,42,14.70
2015,07,06,06,43,14.70
2015,07,06,06,44,14.70
2015,07,06,06,45,14.70
2015,07,06,06,46,14.70
2015,07,06,06,47,14.70
2015,07,06,06,48,14.70
2015,07,06,06,49,14.70
2015,07,06,06,50,14.70
2015,07,06,06,51,14.70
2015,07,06,06,52,14.70
2015,07,06,06,53,14.70
2015,07,06,06,54,14.70
2015,07,06,06,55,14.80
2015,07,06,06,56,14.80
2015,07,06,06,57,14.80
2015,07,06,06,58,14.80
2015,07,06,06,59,14.80
2015,07,06,07,00,14.80
2015,07,06,07,01,14.80
2015,07,06,07,02,14.80
2015,07,06,07,03,14.80
2015,07,06,07,04,14.80
2015,07,06,07,05,14.80
2015,07,06,07,06,14.80
2015,07,06,07,07,14.90
2015,07,06,07,08,14.90
2015,07,06,07,09,14.90
2015,07,06,07,10,14.90
2015,07,06,07,11,14.90
2015,07,06,07,12,15.00
2015,07,06,07,13,15.00
2015,07,06,07,14,15.00
2015,07,06,07,15,15.00
2015,07,06,07,16,15.00
2015,07,06,07,17,15.00
2015,07,06,07,18,15.00
2015,07,06,07,19,15.00
2015,07,06,07,20,15.00
2015,07,06,07,21,15.00
2015,07,06,07,22,15.00
2015,07,06,07,23,15.00
2015,07,06,07,24,15.00
2015,07,06,07,25,15.00
2015,07,06,07,26,15.00
2015,07,06,07,27,15.00
2015,07,06,07,28,15.00
2015,07,06,07,29,15.00
2015,07,06,07,30,15.00
2015,07,06,07,31,15.00
2015,07,06,07,32,15.10
2015,07,06,07,33,15.10
2015,07,06,07,34,15.10
2015,07,06,07,35,15.20
2015,07,06,07,36,15.20
2015,07,06,07,37,15.20
2015,07,06,07,38,15.20
2015,07,06,07,39,15.20
2015,07,06,07,40,15.30
2015,07,06,07,41,15.30
2015,07,06,07,42,15.30
2015,07,06,07,43,15.30
2015,07,06,07,44,15.30
2015,07,06,07,45,15.30
2015,07,06,07,46,15.30
2015,07,06,07,47,15.30
2015,07,06,07,48,15.30
2015,07,06,07,49,15.40
2015,07,06,07,50,15.40
2015,07,06,07,51,15.40
2015,07,06,07,52,15.40
2015,07,06,07,53,15.40
2015,07,06,07,54,15.40
2015,07,06,07,55,15.40
2015,07,06,07,56,15.40
2015,07,06,07,57,15.50
2015,07,06,07,58,15.50
2015,07,06,07,59,15.50
2015,07,06,08,00,15.50
2015,07,06,08,01,15.50
2015,07,06,08,02,15.50
2015,07,06,08,03,15.50
2015,07,06,08,04,15.50
2015,07,06,08,05,15.60
2015,07,06,08,06,15.60
2015,07,06,08,07,15.60
2015,07,06,08,08,15.60
2015,07,06,08,09,15.60
2015,07,06,08,10,15.60
2015,07,06,08,11,15.60
2015,07,06,08,12,15.60
2015,07,06,08,13,15.60
2015,07,06,08,14,15.60
2015,07,06,08,15,15.60
2015,07,06,08,16,15.70
2015,07,06,08,17,15.70
2015,07,06,08,18,15.70
2015,07,06,08,19,15.70
2015,07,06,08,20,15.70
2015,07,06,08,21,15.70
2015,07,06,08,22,15.70
2015,07,06,08,23,15.70
2015,07,06,08,24,15.70
2015,07,06,08,25,15.70
2015,07,06,08,26,15.70
2015,07,06,08,27,15.70
2015,07,06,08,28,15.70
2015,07,06,08,29,15.70
2015,07,06,08,30,15.70
2015,07,06,08,31,15.80
2015,07,06,08,32,15.80
2015,07,06,08,33,15.80
2015,07,06,08,34,15.80
2015,07,06,08,35,15.80
2015,07,06,08,36,15.80
2015,07,06,08,37,15.80
2015,07,06,08,38,15.80
2015,07,06,08,39,15.80
2015,07,06,08,40,15.90
2015,07,06,08,41,15.90
2015,07,06,08,42,15.90
2015,07,06,08,43,15.90
2015,07,06,08,44,15.90
2015,07,06,08,45,15.90
2015,07,06,08,46,16.00
2015,07,06,08,47,16.00
2015,07,06,08,48,16.00
2015,07,06,08,49,16.10
2015,07,06,08,50,16.10
2015,07,06,08,51,16.10
2015,07,06,08,52,16.10
2015,07,06,08,53,16.10
2015,07,06,08,54,16.10
2015,07,06,08,55,16.20
2015,07,06,08,56,16.20
2015,07,06,08,57,16.20
2015,07,06,08,58,16.20
2015,07,06,08,59,16.30
2015,07,06,09,00,16.30
2015,07,06,09,01,16.30
2015,07,06,09,02,16.30
2015,07,06,09,03,16.30
2015,07,06,09,04,16.40
2015,07,06,09,05,16.40
2015,07,06,09,06,16.40
2015,07,06,09,07,16.40
2015,07,06,09,08,16.40
2015,07,06,09,09,16.50
2015,07,06,09,10,16.50
2015,07,06,09,11,16.60
2015,07,06,09,12,16.60
2015,07,06,09,13,16.60
2015,07,06,09,14,16.60
2015,07,06,09,15,16.60
2015,07,06,09,16,16.70
2015,07,06,09,17,16.70
2015,07,06,09,18,16.70
2015,07,06,09,19,16.70
2015,07,06,09,20,16.70
2015,07,06,09,21,16.80
2015,07,06,09,22,16.80
2015,07,06,09,23,16.80
2015,07,06,09,24,16.80
2015,07,06,09,25,16.80
2015,07,06,09,26,16.90
2015,07,06,09,27,16.90
2015,07,06,09,28,17.00
2015,07,06,09,29,17.00
2015,07,06,09,30,17.00
2015,07,06,09,31,17.10
2015,07,06,09,32,17.10
2015,07,06,09,33,17.10
2015,07,06,09,34,17.20
2015,07,06,09,35,17.20
2015,07,06,09,36,17.20
2015,07,06,09,37,17.30
2015,07,06,09,38,17.30
2015,07,06,09,39,17.30
2015,07,06,09,40,17.30
2015,07,06,09,41,17.30
2015,07,06,09,42,17.40
2015,07,06,09,43,17.40
2015,07,06,09,44,17.40
2015,07,06,09,45,17.40
2015,07,06,09,46,17.50
2015,07,06,09,47,17.50
2015,07,06,09,48,17.50
2015,07,06,09,49,17.40
2015,07,06,09,50,17.40
2015,07,06,09,51,17.40
2015,07,06,09,52,17.50
2015,07,06,09,53,17.50
2015,07,06,09,54,17.50
2015,07,06,09,55,17.50
2015,07,06,09,56,17.60
2015,07,06,09,57,17.60
2015,07,06,09,58,17.60
2015,07,06,09,59,17.70
2015,07,06,10,00,17.70
2015,07,06,10,01,17.70
2015,07,06,10,02,17.80
2015,07,06,10,03,17.80
2015,07,06,10,04,17.90
2015,07,06,10,05,17.90
2015,07,06,10,06,17.90
2015,07,06,10,07,18.00
2015,07,06,10,08,18.00
2015,07,06,10,09,18.10
2015,07,06,10,10,18.10
2015,07,06,10,11,18.20
2015,07,06,10,12,18.20
2015,07,06,10,13,18.20
2015,07,06,10,14,18.30
2015,07,06,10,15,18.30
2015,07,06,10,16,18.40
2015,07,06,10,17,18.40
2015,07,06,10,18,18.40
2015,07,06,10,19,18.50
2015,07,06,10,20,18.50
2015,07,06,10,21,18.50
2015,07,06,10,22,18.60
2015,07,06,10,23,18.60
2015,07,06,10,24,18.70
2015,07,06,10,25,18.70
2015,07,06,10,26,18.70
2015,07,06,10,27,18.80
2015,07,06,10,28,18.90
2015,07,06,10,29,18.90
2015,07,06,10,30,18.90
2015,07,06,10,31,18.90
2015,07,06,10,32,18.90
2015,07,06,10,33,18.80
2015,07,06,10,34,18.80
2015,07,06,10,35,18.80
2015,07,06,10,36,18.80
2015,07,06,10,37,18.80
2015,07,06,10,38,18.80
2015,07,06,10,39,18.80
2015,07,06,10,40,18.80
2015,07,06,10,41,18.80
2015,07,06,10,42,18.90
2015,07,06,10,43,18.90
2015,07,06,10,44,18.90
2015,07,06,10,45,18.90
2015,07,06,10,46,19.00
2015,07,06,10,47,19.10
2015,07,06,10,48,19.20
2015,07,06,10,49,19.20
2015,07,06,10,50,19.30
2015,07,06,10,51,19.40
2015,07,06,10,52,19.40
2015,07,06,10,53,19.50
2015,07,06,10,54,19.60
2015,07,06,10,55,19.60
2015,07,06,10,56,19.60
2015,07,06,10,57,19.60
2015,07,06,10,58,19.60
2015,07,06,10,59,19.70
2015,07,06,11,00,19.70
2015,07,06,11,01,19.70
2015,07,06,11,02,19.80
2015,07,06,11,03,19.80
2015,07,06,11,04,19.80
2015,07,06,11,05,19.90
2015,07,06,11,06,20.00
2015,07,06,11,07,20.10
2015,07,06,11,08,20.10
2015,07,06,11,09,20.20
2015,07,06,11,10,20.20
2015,07,06,11,11,20.30
2015,07,06,11,12,20.30
2015,07,06,11,13,20.30
2015,07,06,11,14,20.40
2015,07,06,11,15,20.40
2015,07,06,11,16,20.50
2015,07,06,11,17,20.50
2015,07,06,11,18,20.60
2015,07,06,11,19,20.60
2015,07,06,11,20,20.70
2015,07,06,11,21,20.70
2015,07,06,11,22,20.70
2015,07,06,11,23,20.80
2015,07,06,11,24,20.90
2015,07,06,11,25,21.00
2015,07,06,11,26,21.10
2015,07,06,11,27,21.10
2015,07,06,11,28,21.10
2015,07,06,11,29,21.10
2015,07,06,11,30,21.10
2015,07,06,11,31,21.10
2015,07,06,11,32,21.10
2015,07,06,11,33,21.10
2015,07,06,11,34,21.10
2015,07,06,11,35,21.00
2015,07,06,11,36,21.00
2015,07,06,11,37,20.90
2015,07,06,11,38,20.80
2015,07,06,11,39,20.70
2015,07,06,11,40,20.70
2015,07,06,11,41,20.60
2015,07,06,11,42,20.60
2015,07,06,11,43,20.60
2015,07,06,11,44,20.60
2015,07,06,11,45,20.70
2015,07,06,11,46,20.80
2015,07,06,11,47,20.90
2015,07,06,11,48,21.00
2015,07,06,11,49,21.10
2015,07,06,11,50,21.10
2015,07,06,11,51,21.20
2015,07,06,11,52,21.20
2015,07,06,11,53,21.30
2015,07,06,11,54,21.40
2015,07,06,11,55,21.40
2015,07,06,11,56,21.50
2015,07,06,11,57,21.60
2015,07,06,11,58,21.70
2015,07,06,11,59,21.70
2015,07,06,12,00,21.80
2015,07,06,12,01,21.80
2015,07,06,12,02,21.90
2015,07,06,12,03,21.90
2015,07,06,12,04,22.00
2015,07,06,12,05,22.10
2015,07,06,12,06,22.10
2015,07,06,12,07,22.10
2015,07,06,12,08,22.10
2015,07,06,12,09,22.10
2015,07,06,12,10,22.20
2015,07,06,12,11,22.20
2015,07,06,12,12,22.30
2015,07,06,12,13,22.30
2015,07,06,12,14,22.40
2015,07,06,12,15,22.50
2015,07,06,12,16,22.60
2015,07,06,12,17,22.70
2015,07,06,12,18,22.80
2015,07,06,12,19,22.90
2015,07,06,12,20,23.00
2015,07,06,12,21,23.00
2015,07,06,12,22,23.10
2015,07,06,12,23,23.10
2015,07,06,12,24,23.20
2015,07,06,12,25,23.30
2015,07,06,12,26,23.30
2015,07,06,12,27,23.30
2015,07,06,12,28,23.30
2015,07,06,12,29,23.40
2015,07,06,12,30,23.40
2015,07,06,12,31,23.50
2015,07,06,12,32,23.60
2015,07,06,12,33,23.60
2015,07,06,12,34,23.70
2015,07,06,12,35,23.80
2015,07,06,12,36,23.90
2015,07,06,12,37,24.00
2015,07,06,12,38,24.10
2015,07,06,12,39,24.20
2015,07,06,12,40,24.20
2015,07,06,12,41,24.30
2015,07,06,12,42,24.30
2015,07,06,12,43,24.40
2015,07,06,12,44,24.50
2015,07,06,12,45,24.50
2015,07,06,12,46,24.60
2015,07,06,12,47,24.60
2015,07,06,12,48,24.70
2015,07,06,12,49,24.70
2015,07,06,12,50,24.70
2015,07,06,12,51,24.80
2015,07,06,12,52,24.80
2015,07,06,12,53,24.90
2015,07,06,12,54,24.90
2015,07,06,12,55,24.90
2015,07,06,12,56,25.00
2015,07,06,12,57,25.10
2015,07,06,12,58,25.10
2015,07,06,12,59,25.10
2015,07,06,13,00,25.10
2015,07,06,13,01,25.20
2015,07,06,13,02,25.20
2015,07,06,13,03,25.30
2015,07,06,13,04,25.30
2015,07,06,13,05,25.30
2015,07,06,13,06,25.40
2015,07,06,13,07,25.50
2015,07,06,13,08,25.60
2015,07,06,13,09,25.60
2015,07,06,13,10,25.70
2015,07,06,13,11,25.60
2015,07,06,13,12,25.60
2015,07,06,13,13,25.60
2015,07,06,13,14,25.60
2015,07,06,13,15,25.50
2015,07,06,13,16,25.50
2015,07,06,13,17,25.40
2015,07,06,13,18,25.50
2015,07,06,13,19,25.50
2015,07,06,13,20,25.60
2015,07,06,13,21,25.60
2015,07,06,13,22,25.70
2015,07,06,13,23,25.80
2015,07,06,13,24,25.80
2015,07,06,13,25,25.80
2015,07,06,13,26,25.80
2015,07,06,13,27,25.80
2015,07,06,13,28,25.90
2015,07,06,13,29,25.90
2015,07,06,13,30,26.00
2015,07,06,13,31,26.00
2015,07,06,13,32,26.10
2015,07,06,13,33,26.20
2015,07,06,13,34,26.20
2015,07,06,13,35,26.30
2015,07,06,13,36,26.40
2015,07,06,13,37,26.40
2015,07,06,13,38,26.50
2015,07,06,13,39,26.50
2015,07,06,13,40,26.60
2015,07,06,13,41,26.60
2015,07,06,13,42,26.70
2015,07,06,13,43,26.70
2015,07,06,13,44,26.70
2015,07,06,13,45,26.60
2015,07,06,13,46,26.60
2015,07,06,13,47,26.50
2015,07,06,13,48,26.60
2015,07,06,13,49,26.60
2015,07,06,13,50,26.60
2015,07,06,13,51,26.70
2015,07,06,13,52,26.70
2015,07,06,13,53,26.70
2015,07,06,13,54,26.80
2015,07,06,13,55,26.90
2015,07,06,13,56,26.90
2015,07,06,13,57,27.00
2015,07,06,13,58,27.00
2015,07,06,13,59,27.00
2015,07,06,14,00,26.90
2015,07,06,14,01,26.80
2015,07,06,14,02,26.80
2015,07,06,14,03,26.80
2015,07,06,14,04,26.80
2015,07,06,14,05,26.70
2015,07,06,14,06,26.70
2015,07,06,14,07,26.70
2015,07,06,14,08,26.70
2015,07,06,14,09,26.70
2015,07,06,14,10,26.60
2015,07,06,14,11,26.60
2015,07,06,14,12,26.60
2015,07,06,14,13,26.60
2015,07,06,14,14,26.60
2015,07,06,14,15,26.60
2015,07,06,14,16,26.60
2015,07,06,14,17,26.60
2015,07,06,14,18,26.60
2015,07,06,14,19,26.70
2015,07,06,14,20,26.80
2015,07,06,14,21,26.80
2015,07,06,14,22,26.80
2015,07,06,14,23,26.90
2015,07,06,14,24,26.90
2015,07,06,14,25,26.90
2015,07,06,14,26,27.00
2015,07,06,14,27,27.10
2015,07,06,14,28,27.10
2015,07,06,14,29,27.20
2015,07,06,14,30,27.20
2015,07,06,14,31,27.20
2015,07,06,14,32,27.20
2015,07,06,14,33,27.20
2015,07,06,14,34,27.20
2015,07,06,14,35,27.20
2015,07,06,14,36,27.20
2015,07,06,14,37,27.20
2015,07,06,14,38,27.10
2015,07,06,14,39,27.10
2015,07,06,14,40,27.10
2015,07,06,14,41,27.00
2015,07,06,14,42,26.90
2015,07,06,14,43,26.90
2015,07,06,14,44,26.90
2015,07,06,14,45,27.00
2015,07,06,14,46,27.00
2015,07,06,14,47,27.00
2015,07,06,14,48,27.00
2015,07,06,14,49,27.10
2015,07,06,14,50,27.10
2015,07,06,14,51,27.10
2015,07,06,14,52,27.10
2015,07,06,14,53,27.10
2015,07,06,14,54,27.00
2015,07,06,14,55,27.00
2015,07,06,14,56,27.00
2015,07,06,14,57,26.90
2015,07,06,14,58,26.90
2015,07,06,14,59,26.90
2015,07,06,15,00,26.90
2015,07,06,15,01,26.90
2015,07,06,15,02,26.90
2015,07,06,15,03,26.90
2015,07,06,15,04,26.80
2015,07,06,15,05,26.80
2015,07,06,15,06,26.80
2015,07,06,15,07,26.80
2015,07,06,15,08,26.90
2015,07,06,15,09,27.00
2015,07,06,15,10,27.00
2015,07,06,15,11,27.10
2015,07,06,15,12,27.20
2015,07,06,15,13,27.30
2015,07,06,15,14,27.30
2015,07,06,15,15,27.30
2015,07,06,15,16,27.40
2015,07,06,15,17,27.40
2015,07,06,15,18,27.40
2015,07,06,15,19,27.40
2015,07,06,15,20,27.40
2015,07,06,15,21,27.40
2015,07,06,15,22,27.50
2015,07,06,15,23,27.50
2015,07,06,15,24,27.60
2015,07,06,15,25,27.60
2015,07,06,15,26,27.60
2015,07,06,15,27,27.60
2015,07,06,15,28,27.60
2015,07,06,15,29,27.60
2015,07,06,15,30,27.50
2015,07,06,15,31,27.40
2015,07,06,15,32,27.30
2015,07,06,15,33,27.20
2015,07,06,15,34,27.10
2015,07,06,15,35,27.00
2015,07,06,15,36,26.90
2015,07,06,15,37,26.90
2015,07,06,15,38,26.90
2015,07,06,15,39,27.00
2015,07,06,15,40,27.00
2015,07,06,15,41,27.10
2015,07,06,15,42,27.10
2015,07,06,15,43,27.20
2015,07,06,15,44,27.30
2015,07,06,15,45,27.20
2015,07,06,15,46,27.20
2015,07,06,15,47,27.10
2015,07,06,15,48,27.10
2015,07,06,15,49,27.10
2015,07,06,15,50,27.10
2015,07,06,15,51,27.10
2015,07,06,15,52,27.10
2015,07,06,15,53,27.10
2015,07,06,15,54,27.10
2015,07,06,15,55,27.10
2015,07,06,15,56,27.10
2015,07,06,15,57,27.10
2015,07,06,15,58,27.00
2015,07,06,15,59,27.00
2015,07,06,16,00,27.00
2015,07,06,16,01,26.90
2015,07,06,16,02,26.90
2015,07,06,16,03,26.90
2015,07,06,16,04,27.00
2015,07,06,16,05,27.00
2015,07,06,16,06,27.10
2015,07,06,16,07,27.10
2015,07,06,16,08,27.00
2015,07,06,16,09,27.00
2015,07,06,16,10,27.00
2015,07,06,16,11,26.90
2015,07,06,16,12,26.90
2015,07,06,16,13,26.90
2015,07,06,16,14,26.90
2015,07,06,16,15,27.00
2015,07,06,16,16,27.00
2015,07,06,16,17,26.90
2015,07,06,16,18,26.90
2015,07,06,16,19,26.90
2015,07,06,16,20,27.00
2015,07,06,16,21,27.10
2015,07,06,16,22,27.10
2015,07,06,16,23,27.20
2015,07,06,16,24,27.20
2015,07,06,16,25,27.20
2015,07,06,16,26,27.20
2015,07,06,16,27,27.10
2015,07,06,16,28,27.10
2015,07,06,16,29,27.00
2015,07,06,16,30,27.00
2015,07,06,16,31,26.90
2015,07,06,16,32,26.90
2015,07,06,16,33,26.90
2015,07,06,16,34,26.90
2015,07,06,16,35,26.90
2015,07,06,16,36,26.90
2015,07,06,16,37,26.90
2015,07,06,16,38,26.90
2015,07,06,16,39,26.90
2015,07,06,16,40,26.90
2015,07,06,16,41,26.90
2015,07,06,16,42,26.90
2015,07,06,16,43,26.90
2015,07,06,16,44,26.90
2015,07,06,16,45,26.90
2015,07,06,16,46,26.90
2015,07,06,16,47,26.90
2015,07,06,16,48,26.90
2015,07,06,16,49,26.90
2015,07,06,16,50,26.90
2015,07,06,16,51,26.90
2015,07,06,16,52,26.90
2015,07,06,16,53,26.90
2015,07,06,16,54,26.90
2015,07,06,16,55,26.80
2015,07,06,16,56,26.80
2015,07,06,16,57,26.80
2015,07,06,16,58,26.80
2015,07,06,16,59,26.80
2015,07,06,17,00,26.80
2015,07,06,17,01,26.80
2015,07,06,17,02,26.80
2015,07,06,17,03,26.80
2015,07,06,17,04,26.70
2015,07,06,17,05,26.70
2015,07,06,17,06,26.70
2015,07,06,17,07,26.60
2015,07,06,17,08,26.50
2015,07,06,17,09,26.50
2015,07,06,17,10,26.40
2015,07,06,17,11,26.40
2015,07,06,17,12,26.30
2015,07,06,17,13,26.30
2015,07,06,17,14,26.30
2015,07,06,17,15,26.30
2015,07,06,17,16,26.30
2015,07,06,17,17,26.30
2015,07,06,17,18,26.20
2015,07,06,17,19,26.20